Location: A�t Bou Chrif
(32.7193°N, 5.2385°W)
Time: 00:49:07
(UTC+00:00)

Cosmos 2366 rocket - Pass Details

Date: 08 August 2020
Orbit: 955 x 997 km, 82.9° (Epoch: 18 September)

Event Time Altitude Azimuth Distance (km) Brightness Sun altitude
Rises 19:42:54 0° 177° (S) 3,681 6.7 -6.7°
Reaches altitude 10° 19:45:25 10° 175° (S) 2,731 6.1 -7.2°
Maximum altitude 19:51:38 69° 93° (E) 1,044 4.0 -8.4°
Drops below altitude 10° 19:57:48 10° 12° (NNE) 2,715 6.5 -9.6°
Sets 20:00:18 0° 10° (N) 3,660 7.2 -10.1°
